When you browse on this site, cookies collect data to enhance your experience and personalize the content and advertising you see.
Visit our Privacy Policy to learn more. By continuing to use the site, you agree to this use of cookies and data.
  • In France
  • List of Countries
  • For 7 days
  • Water Temperature
  • Weather Map
  • Weather Widgets
  • user-avatar
    Login

    Hourly Weather Luanda

    Today, 1 June, Monday

    Time Temperature Precipitation Wind Pressure Humidity
    00:00 +24°C° 0 mm 1 mps 754 mmHg 96%
    01:00 +24°C° 0 mm 1 mps 755 mmHg 96%
    02:00 +23°C° 0 mm 1 mps 755 mmHg 96%
    03:00 +23°C° 0 mm 1 mps 754 mmHg 96%
    04:00 +23°C° 0 mm 1 mps 754 mmHg 96%
    05:00 +23°C° 0 mm 2 mps 754 mmHg 95%
    06:00 +24°C° 0 mm 2 mps 755 mmHg 94%
    07:00 +25°C° 0 mm 2 mps 756 mmHg 94%
    08:00 +27°C° 0 mm 2 mps 755 mmHg 84%
    09:00 +29°C° 0 mm 1 mps 755 mmHg 74%
    10:00 +31°C° 0 mm 1 mps 755 mmHg 64%
    11:00 +31°C° 0 mm 2 mps 755 mmHg 61%
    12:00 +32°C° 0 mm 2 mps 754 mmHg 58%
    13:00 +34°C° 0 mm 3 mps 754 mmHg 54%
    14:00 +33°C° 0 mm 4 mps 753 mmHg 60%
    15:00 +32°C° 0 mm 4 mps 753 mmHg 65%
    16:00 +30°C° 0 mm 5 mps 752 mmHg 71%
    17:00 +28°C° 0 mm 5 mps 753 mmHg 77%
    18:00 +27°C° 0 mm 4 mps 753 mmHg 83%
    19:00 +26°C° 0 mm 4 mps 754 mmHg 89%
    20:00 +25°C° 0 mm 3 mps 754 mmHg 91%
    21:00 +25°C° 0 mm 2 mps 755 mmHg 93%
    22:00 +24°C° 0 mm 1 mps 755 mmHg 95%
    23:00 +24°C° 0 mm 1 mps 755 mmHg 95%

    Tomorrow, 2 June, Tuesday

    Time Temperature Precipitation Wind Pressure Humidity
    00:00 +24°C° 0 mm 2 mps 755 mmHg 96%
    01:00 +24°C° 0 mm 2 mps 755 mmHg 96%
    02:00 +23°C° 0 mm 2 mps 755 mmHg 96%
    03:00 +23°C° 0 mm 1 mps 755 mmHg 96%
    04:00 +23°C° 0 mm 1 mps 755 mmHg 96%
    05:00 +23°C° 0 mm 2 mps 755 mmHg 95%
    06:00 +24°C° 0 mm 2 mps 755 mmHg 93%
    07:00 +24°C° 0 mm 3 mps 756 mmHg 91%
    08:00 +26°C° 0 mm 2 mps 756 mmHg 81%
    09:00 +29°C° 0 mm 2 mps 756 mmHg 71%
    10:00 +31°C° 0 mm 1 mps 756 mmHg 61%
    11:00 +32°C° 0 mm 2 mps 755 mmHg 55%
    12:00 +34°C° 0 mm 2 mps 754 mmHg 49%
    13:00 +36°C° 0 mm 3 mps 754 mmHg 43%
    14:00 +34°C° 0 mm 4 mps 753 mmHg 50%
    15:00 +33°C° 0 mm 4 mps 752 mmHg 57%
    16:00 +30°C° 0 mm 5 mps 752 mmHg 64%
    17:00 +29°C° 0 mm 5 mps 752 mmHg 71%
    18:00 +27°C° 0 mm 5 mps 753 mmHg 78%
    19:00 +26°C° 0 mm 5 mps 753 mmHg 86%
    20:00 +25°C° 0 mm 4 mps 753 mmHg 89%
    21:00 +25°C° 0 mm 2 mps 754 mmHg 92%
    22:00 +24°C° 0 mm 1 mps 754 mmHg 95%
    23:00 +24°C° 0 mm 1 mps 754 mmHg 95%

    Day after tomorrow, 3 June, Wednesday

    Time Temperature Precipitation Wind Pressure Humidity
    00:00 +23°C° 0 mm 1 mps 754 mmHg 95%
    01:00 +23°C° 0 mm 1 mps 754 mmHg 96%
    02:00 +24°C° 0 mm 1 mps 754 mmHg 94%
    03:00 +24°C° 0 mm 1 mps 754 mmHg 93%
    04:00 +25°C° 0 mm 2 mps 754 mmHg 91%
    05:00 +25°C° 0 mm 2 mps 754 mmHg 90%
    06:00 +25°C° 0 mm 1 mps 754 mmHg 89%
    07:00 +25°C° 0 mm 1 mps 754 mmHg 88%
    08:00 +26°C° 0 mm 1 mps 755 mmHg 80%
    09:00 +28°C° 0 mm 1 mps 755 mmHg 72%
    10:00 +28°C° 0 mm 0 mps 755 mmHg 64%
    11:00 +31°C° 0 mm 2 mps 755 mmHg 59%
    12:00 +33°C° 0 mm 3 mps 754 mmHg 55%
    13:00 +34°C° 0 mm 4 mps 754 mmHg 50%
    14:00 +33°C° 0 mm 4 mps 753 mmHg 55%
    15:00 +32°C° 0 mm 4 mps 753 mmHg 60%
    16:00 +29°C° 0 mm 5 mps 752 mmHg 66%
    17:00 +28°C° 0 mm 4 mps 753 mmHg 72%
    18:00 +27°C° 0 mm 4 mps 753 mmHg 78%
    19:00 +25°C° 0 mm 4 mps 754 mmHg 84%
    20:00 +25°C° 0 mm 4 mps 754 mmHg 86%
    21:00 +25°C° 0 mm 3 mps 754 mmHg 89%
    22:00 +24°C° 0 mm 3 mps 755 mmHg 92%
    23:00 +24°C° 0 mm 2 mps 755 mmHg 93%

    4 June, Thursday

    Time Temperature Precipitation Wind Pressure Humidity
    00:00 +24°C° 0 mm 2 mps 755 mmHg 93%
    01:00 +24°C° 0 mm 1 mps 754 mmHg 93%
    02:00 +24°C° 0 mm 1 mps 754 mmHg 92%
    03:00 +24°C° 0 mm 1 mps 754 mmHg 91%
    04:00 +24°C° 0 mm 2 mps 754 mmHg 90%
    05:00 +24°C° 0 mm 1 mps 754 mmHg 88%
    06:00 +25°C° 0 mm 1 mps 754 mmHg 86%
    07:00 +25°C° 0 mm 1 mps 755 mmHg 84%
    08:00 +27°C° 0 mm 1 mps 755 mmHg 75%
    09:00 +29°C° 0 mm 1 mps 755 mmHg 66%
    10:00 +30°C° 0 mm 1 mps 755 mmHg 57%
    11:00 +32°C° 0 mm 2 mps 755 mmHg 53%
    12:00 +34°C° 0 mm 3 mps 754 mmHg 49%
    13:00 +35°C° 0 mm 4 mps 754 mmHg 45%
    14:00 +34°C° 0 mm 4 mps 753 mmHg 50%
    15:00 +32°C° 0 mm 4 mps 753 mmHg 55%
    16:00 +30°C° 0 mm 5 mps 752 mmHg 61%
    17:00 +29°C° 0 mm 5 mps 753 mmHg 68%
    18:00 +27°C° 0 mm 5 mps 753 mmHg 75%
    19:00 +25°C° 0 mm 4 mps 753 mmHg 82%
    20:00 +25°C° 0 mm 4 mps 754 mmHg 84%
    21:00 +25°C° 0 mm 3 mps 754 mmHg 87%
    22:00 +24°C° 0 mm 3 mps 755 mmHg 89%
    23:00 +24°C° 0 mm 3 mps 755 mmHg 91%

    5 June, Friday

    Time Temperature Precipitation Wind Pressure Humidity
    00:00 +24°C° 0 mm 2 mps 755 mmHg 92%
    01:00 +23°C° 0 mm 2 mps 755 mmHg 93%
    02:00 +23°C° 0 mm 2 mps 754 mmHg 93%
    03:00 +23°C° 0 mm 2 mps 754 mmHg 94%
    04:00 +23°C° 0 mm 2 mps 754 mmHg 94%
    05:00 +23°C° 0 mm 2 mps 754 mmHg 93%
    06:00 +23°C° 0 mm 2 mps 754 mmHg 91%
    07:00 +23°C° 0 mm 2 mps 755 mmHg 90%
    08:00 +26°C° 0 mm 2 mps 755 mmHg 78%
    09:00 +28°C° 0 mm 1 mps 755 mmHg 67%
    10:00 +30°C° 0 mm 1 mps 755 mmHg 56%
    11:00 +32°C° 0 mm 2 mps 754 mmHg 53%
    12:00 +34°C° 0 mm 3 mps 754 mmHg 50%
    13:00 +35°C° 0 mm 4 mps 753 mmHg 46%
    14:00 +34°C° 0 mm 4 mps 753 mmHg 52%
    15:00 +33°C° 0 mm 4 mps 752 mmHg 58%
    16:00 +30°C° 0 mm 5 mps 752 mmHg 63%
    17:00 +29°C° 0 mm 5 mps 752 mmHg 70%
    18:00 +27°C° 0 mm 5 mps 753 mmHg 77%
    19:00 +26°C° 0 mm 5 mps 753 mmHg 84%
    20:00 +25°C° 0 mm 4 mps 754 mmHg 87%
    21:00 +25°C° 0 mm 3 mps 754 mmHg 91%
    22:00 +24°C° 0 mm 2 mps 755 mmHg 94%
    23:00 +24°C° 0 mm 2 mps 755 mmHg 94%

    6 June, Saturday

    Time Temperature Precipitation Wind Pressure Humidity
    00:00 +23°C° 0 mm 1 mps 755 mmHg 95%
    01:00 +23°C° 0 mm 1 mps 755 mmHg 95%
    02:00 +23°C° 0 mm 2 mps 754 mmHg 95%
    03:00 +23°C° 0 mm 2 mps 754 mmHg 96%
    04:00 +23°C° 0 mm 2 mps 754 mmHg 96%
    05:00 +23°C° 0 mm 2 mps 754 mmHg 95%
    06:00 +23°C° 0 mm 2 mps 754 mmHg 94%
    07:00 +24°C° 0 mm 2 mps 755 mmHg 93%
    08:00 +26°C° 0 mm 2 mps 755 mmHg 82%
    09:00 +28°C° 0 mm 2 mps 755 mmHg 70%
    10:00 +30°C° 0 mm 1 mps 755 mmHg 58%
    11:00 +32°C° 0 mm 2 mps 754 mmHg 54%
    12:00 +34°C° 0 mm 3 mps 754 mmHg 49%
    13:00 +36°C° 0 mm 4 mps 753 mmHg 44%
    14:00 +34°C° 0 mm 4 mps 753 mmHg 52%
    15:00 +32°C° 0 mm 5 mps 752 mmHg 60%
    16:00 +30°C° 0 mm 5 mps 752 mmHg 68%
    17:00 +28°C° 0 mm 5 mps 752 mmHg 75%
    18:00 +27°C° 0 mm 5 mps 753 mmHg 81%
    19:00 +26°C° 0 mm 5 mps 753 mmHg 87%
    20:00 +25°C° 0 mm 4 mps 753 mmHg 90%
    21:00 +24°C° 0 mm 3 mps 754 mmHg 93%
    22:00 +24°C° 0 mm 1 mps 754 mmHg 95%
    23:00 +24°C° 0 mm 1 mps 754 mmHg 96%
    Show more